logo tempoitalia

Diretta Meteo Heraklion, Grecialunedì 31 agosto ore 08:20

Mappa
Sereno 27 °C Sereno 24 Ore: T.min 25 T.max 29
Ponente Nord-Ovest Km/h 27.8 Punto di rugiada: 18 °C Umidità: 57% Visibilità: 10 Km
Il sole sorge alle: 06:50 Il sole tramonta alle: 19:48
31 Agosto 2026 08:20 tempo osservato: Sereno Sereno 27 57 1014 vento: Nord NO 27.8
31 Agosto 2026 07:50 tempo osservato: Sereno Sereno 27 61 1014 vento: Nord O/NO 25.9
31 Agosto 2026 07:20 tempo osservato: Sereno Sereno 26 65 1014 vento: Nord O/NO 27.8
31 Agosto 2026 06:50 tempo osservato: Sereno Sereno 26 65 1014 vento: Nord O/NO 29.6
31 Agosto 2026 06:20 tempo osservato: Sereno Sereno 25 73 1014 vento: Nord O/NO 25.9
31 Agosto 2026 05:50 tempo osservato: Sereno Sereno 26 69 1014 vento: Nord O/NO 16.7
31 Agosto 2026 05:20 tempo osservato: Sereno Sereno 26 69 1015 vento: Nord O/NO 16.7
31 Agosto 2026 04:50 tempo osservato: Sereno Sereno 26 69 1015 vento: Nord O/NO 16.7
31 Agosto 2026 04:20 tempo osservato: Sereno Sereno 26 69 1015 vento: Nord O/NO 16.7
31 Agosto 2026 03:50 tempo osservato: Sereno Sereno 26 69 1015 vento: Nord O/NO 16.7
31 Agosto 2026 03:20 tempo osservato: Sereno Sereno 26 69 1015 vento: Nord O/NO 16.7
31 Agosto 2026 02:50 tempo osservato: Sereno Sereno 26 69 1015 vento: Nord O/NO 16.7
31 Agosto 2026 02:20 tempo osservato: Sereno Sereno 26 69 1015 vento: Nord O/NO 11.1
31 Agosto 2026 01:50 tempo osservato: Sereno Sereno 26 69 1015 vento: Nord O/NO 11.1
31 Agosto 2026 01:20 tempo osservato: Sereno Sereno 26 69 1015 vento: Nord O/NO 11.1
31 Agosto 2026 00:50 tempo osservato: Sereno Sereno 26 69 1015 vento: Nord O/NO 11.1
31 Agosto 2026 00:20 tempo osservato: Sereno Sereno 26 69 1015 vento: Nord O/NO 11.1
30 Agosto 2026 23:50 tempo osservato: Sereno Sereno 26 69 1015 vento: Nord O/NO 11.1
30 Agosto 2026 23:20 tempo osservato: Sereno Sereno 26 69 1015 vento: Nord O 14.8
30 Agosto 2026 22:50 tempo osservato: Sereno Sereno 26 69 1015 vento: Nord O 14.8
30 Agosto 2026 22:20 tempo osservato: Sereno Sereno 26 69 1015 vento: Nord O 14.8
30 Agosto 2026 21:50 tempo osservato: Sereno Sereno 26 69 1015 vento: Nord NO 14.8
30 Agosto 2026 21:20 tempo osservato: Sereno Sereno 26 78 1014 vento: Nord O/NO 14.8
30 Agosto 2026 20:50 tempo osservato: Sereno Sereno 26 78 1014 vento: Nord O/NO 14.8
30 Agosto 2026 20:20 tempo osservato: Sereno Sereno 26 65 1014 vento: Nord O/NO 14.8
30 Agosto 2026 19:50 tempo osservato: Sereno Sereno 26 69 1014 vento: Nord O/NO 16.7
30 Agosto 2026 19:20 tempo osservato: Sereno Sereno 27 61 1015 vento: Nord NO 18.5
30 Agosto 2026 18:50 tempo osservato: Sereno Sereno 28 61 1015 vento: Nord NO 22.2
30 Agosto 2026 18:20 tempo osservato: Sereno Sereno 28 61 1015 vento: Nord NO 22.2
30 Agosto 2026 17:50 tempo osservato: Sereno Sereno 29 58 1015 vento: Nord NO 25.9
30 Agosto 2026 17:20 tempo osservato: Sereno Sereno 29 58 1015 vento: Nord NO 25.9
30 Agosto 2026 16:50 tempo osservato: Sereno Sereno 29 58 1015 vento: Nord NO 25.9
30 Agosto 2026 16:20 tempo osservato: Sereno Sereno 29 58 1015 vento: Nord NO 25.9
30 Agosto 2026 15:50 tempo osservato: Sereno Sereno 29 58 1015 vento: Nord NO 25.9
30 Agosto 2026 15:20 tempo osservato: Sereno Sereno 29 58 1015 vento: Nord NO 25.9
30 Agosto 2026 14:50 tempo osservato: Sereno Sereno 29 58 1015 vento: Nord NO 25.9
30 Agosto 2026 14:20 tempo osservato: Sereno Sereno 29 58 1015 vento: Nord NO 20.3
30 Agosto 2026 13:50 tempo osservato: Sereno Sereno 29 58 1015 vento: Nord NO 20.3
30 Agosto 2026 13:20 tempo osservato: Sereno Sereno 29 58 1015 vento: Nord NO 20.3
30 Agosto 2026 12:50 tempo osservato: Sereno Sereno 28 61 1015 vento: Nord NO 20.3
30 Agosto 2026 12:20 tempo osservato: Sereno Sereno 28 61 1015 vento: Nord NO 20.3
30 Agosto 2026 11:50 tempo osservato: Sereno Sereno 28 61 1015 vento: Nord NO 20.3
30 Agosto 2026 11:20 tempo osservato: Sereno Sereno 28 61 1014 vento: Nord NO 18.5
30 Agosto 2026 10:50 tempo osservato: Sereno Sereno 27 61 1014 vento: Nord NO 18.5
30 Agosto 2026 10:20 tempo osservato: Sereno Sereno 27 61 1014 vento: Nord NO 14.8
30 Agosto 2026 09:50 tempo osservato: Sereno Sereno 27 61 1014 vento: Nord NO 14.8
30 Agosto 2026 09:20 tempo osservato: Sereno Sereno 27 61 1014 vento: Nord O/NO 22.2
30 Agosto 2026 08:50 tempo osservato: Sereno Sereno 27 61 1015 vento: Nord O/NO 22.2